Regional Weather Roundup
Issued by NWS

Home | Current Version | Previous Version | Graphics & Text | Print | Product List | Glossary On
Versions: 1 2 3 4 5 6 7 8 9 10 11 12 13 14 15 16 17 18 19 20 21 22 23 24 25 26 27 28 29 30 31 32 33 34 35 36 37 38 39 40 41 42 43 44 45 46 47 48 49 50
000
ASUS43 KBIS 292010
RWRND

NORTH DAKOTA REGIONAL WEATHER ROUNDUP
NATIONAL WEATHER SERVICE BISMARCK ND
300 PM CDT SAT APR 29 2017

NOTE: "FAIR" INDICATES FEW OR NO CLOUDS BELOW 12,000 FEET WITH NO
SIGNIFICANT WEATHER AND/OR OBSTRUCTIONS TO VISIBILITY.


NDZ001>003-009>011-017-292100-
NORTHWEST NORTH DAKOTA

CITY           SKY/WX    TMP DP  RH WIND       PRES   REMARKS
WILLISTON      PTSUNNY   63  33  32 SW14      30.21S
MINOT          FAIR      63  25  23 SW9       30.20S
MINOT AFB      PTSUNNY   62  26  26 SW12G17   30.19S
$$

NDZ018>021-031>035-040>046-292100-
SOUTHWEST NORTH DAKOTA

CITY           SKY/WX    TMP DP  RH WIND       PRES   REMARKS
BISMARCK       FAIR      61  18  18 VRB6      30.26S
DICKINSON      FAIR      57  19  22 S7        30.21S
GARRISON         N/A     60  22  23 W10G18    30.22R
HETTINGER ARPT SUNNY     56  19  23 VRB7      30.26S
$$

NDZ004>008-012>016-024-026-027-054-292100-
NORTHEAST NORTH DAKOTA

CITY           SKY/WX    TMP DP  RH WIND       PRES   REMARKS
GRAND FORKS    PTSUNNY   58  23  26 W5        30.30S
GRND FRKS AFB  SUNNY     57  21  25 SE5       30.30S
DEVILS LAKE    FAIR      59  17  19 SW7       30.27S
$$

NDZ022-023-025-028>030-036>039-047>053-292100-
SOUTHEAST NORTH DAKOTA

CITY           SKY/WX    TMP DP  RH WIND       PRES   REMARKS
FARGO          SUNNY     58  19  22 VRB3      30.31R
JAMESTOWN      FAIR      58  19  22 VRB6      30.27S
$$




USA.gov is the U.S. government's official web portal to all federal, state and local government web resources and services.